SAS926 KIAD-EKCH

Flight info

Callsign SAS926
Flight time 7h 12m
Altitude 37000
Route JCOBY4 SWANN DCT BROSS Q419 RBV Q22 FOXWD DCT WITCH DCT EBONY/N0495F390 N505B ALLRY/M084F400 DCT 51N050W 53N040W 55N030W 56N020W DCT PIKIL DCT SOVED/N0481F410 DCT IBROD DCT OKPAL DCT ELSAN DCT VAXIT DCT TESPI
Aircraft A359/H-SDE2E3GHIJ3J4J5LM1ORWXY/LB1D1

Departure

Time 2026-05-04 10:26
Airport Washington Dulles International Airport (KIAD)

Arrival

Time 2026-05-04 17:38
Airport Copenhagen Kastrup Airport (EKCH)
Time Latitude Longitude Altitude Speed Heading
2026-05-04 09:37 38.94815 -77.44737 310 ft 0 kts 15°
2026-05-04 10:16 38.94742 -77.44761 308 ft 4 kts 353°
2026-05-04 10:16 38.94726 -77.44748 306 ft 4 kts 279°
2026-05-04 10:16 38.94725 -77.44715 306 ft 4 kts 271°
2026-05-04 10:16 38.94725 -77.44696 305 ft 0 kts 271°
2026-05-04 10:20 38.94725 -77.44728 308 ft 7 kts 271°
2026-05-04 10:20 38.94726 -77.44811 309 ft 12 kts 270°
2026-05-04 10:21 38.94726 -77.44944 310 ft 18 kts 271°
2026-05-04 10:21 38.94729 -77.45121 306 ft 22 kts 271°
2026-05-04 10:21 38.94729 -77.45334 306 ft 24 kts 270°
2026-05-04 10:21 38.94734 -77.45524 306 ft 10 kts 272°
2026-05-04 10:22 38.94653 -77.45609 308 ft 9 kts 180°
2026-05-04 10:22 38.94591 -77.45610 309 ft 10 kts 180°
2026-05-04 10:22 38.94515 -77.45612 308 ft 13 kts 181°
2026-05-04 10:23 38.94409 -77.45613 311 ft 17 kts 180°
2026-05-04 10:23 38.94275 -77.45614 308 ft 21 kts 180°
2026-05-04 10:25 38.93433 -77.45827 305 ft 10 kts 270°
2026-05-04 10:25 38.93440 -77.45863 304 ft 0 kts 289°
2026-05-04 10:25 38.93468 -77.45959 309 ft 40 kts 291°
2026-05-04 10:25 38.93641 -77.46544 312 ft 99 kts 290°
2026-05-04 10:26 38.93947 -77.47583 310 ft 149 kts 290°
2026-05-04 10:26 38.94351 -77.48972 573 ft 169 kts 288°
2026-05-04 10:26 38.94744 -77.50367 1253 ft 163 kts 288°
2026-05-04 10:26 38.95184 -77.51762 1710 ft 178 kts 290°
2026-05-04 10:27 38.95704 -77.53324 1931 ft 201 kts 290°
2026-05-04 10:27 38.96444 -77.54952 2268 ft 224 kts 306°
2026-05-04 10:27 38.97602 -77.56438 2564 ft 249 kts 325°
2026-05-04 10:27 38.99285 -77.57161 2919 ft 264 kts 353°
2026-05-04 10:28 39.01106 -77.56820 3000 ft 269 kts 19°
2026-05-04 10:28 39.02770 -77.55709 3000 ft 272 kts 32°
2026-05-04 10:28 39.04251 -77.54186 3000 ft 274 kts 44°
2026-05-04 10:28 39.05447 -77.52280 3008 ft 274 kts 54°
2026-05-04 10:29 39.06511 -77.50244 3000 ft 274 kts 56°
2026-05-04 10:29 39.07538 -77.48172 3082 ft 274 kts 57°
2026-05-04 10:29 39.08555 -77.46079 3519 ft 278 kts 57°
2026-05-04 10:29 39.09572 -77.43962 4262 ft 279 kts 57°
2026-05-04 10:30 39.10593 -77.41827 4995 ft 281 kts 56°
2026-05-04 10:30 39.11623 -77.39670 5702 ft 284 kts 56°
2026-05-04 10:30 39.12664 -77.37485 6429 ft 288 kts 56°
2026-05-04 10:30 39.13717 -77.35270 7115 ft 292 kts 56°
2026-05-04 10:31 39.14777 -77.33024 7834 ft 296 kts 57°
2026-05-04 10:31 39.15547 -77.30544 8544 ft 304 kts 79°
2026-05-04 10:32 39.13116 -77.14104 11172 ft 376 kts 102°
2026-05-04 10:33 39.12586 -77.10768 11709 ft 384 kts 102°
2026-05-04 10:33 39.12048 -77.07377 12357 ft 389 kts 102°
2026-05-04 10:33 39.11502 -77.03940 13006 ft 394 kts 102°
2026-05-04 10:33 39.10958 -77.00462 13655 ft 398 kts 100°
2026-05-04 10:34 39.10741 -76.96899 14260 ft 401 kts 88°
2026-05-04 10:34 39.10808 -76.93297 14848 ft 404 kts 86°
2026-05-04 10:34 39.10914 -76.89714 15435 ft 407 kts 86°
2026-05-04 10:34 39.11018 -76.86059 16037 ft 411 kts 87°
2026-05-04 10:35 39.11118 -76.82366 16636 ft 414 kts 87°
2026-05-04 10:35 39.11214 -76.78648 17223 ft 418 kts 87°
2026-05-04 10:35 39.11308 -76.74896 17837 ft 421 kts 87°
2026-05-04 10:35 39.11401 -76.71111 18455 ft 425 kts 87°
2026-05-04 10:36 39.11493 -76.67283 18949 ft 429 kts 87°
2026-05-04 10:36 39.11581 -76.63552 19450 ft 433 kts 87°
2026-05-04 10:36 39.11675 -76.59543 20065 ft 435 kts 88°
2026-05-04 10:36 39.11764 -76.55629 20590 ft 440 kts 88°
2026-05-04 10:37 39.11934 -76.51681 21107 ft 443 kts 83°
2026-05-04 10:37 39.12334 -76.47728 21588 ft 448 kts 81°
2026-05-04 10:37 39.12790 -76.43740 22079 ft 453 kts 80°
2026-05-04 10:37 39.13253 -76.39710 22634 ft 456 kts 81°
2026-05-04 10:39 39.16069 -76.14855 25353 ft 478 kts 81°
2026-05-04 10:39 39.16562 -76.10592 25623 ft 485 kts 81°
2026-05-04 10:39 39.17060 -76.06269 25973 ft 489 kts 81°
2026-05-04 10:40 39.17558 -76.01921 26424 ft 492 kts 81°
2026-05-04 10:40 39.18066 -75.97546 26880 ft 494 kts 79°
2026-05-04 10:40 39.18871 -75.93261 27442 ft 492 kts 70°
2026-05-04 10:40 39.20177 -75.89198 27848 ft 491 kts 59°
2026-05-04 10:41 39.22028 -75.85510 28191 ft 489 kts 47°
2026-05-04 10:41 39.24356 -75.82333 28566 ft 487 kts 38°
2026-05-04 10:41 39.26873 -75.79402 28943 ft 489 kts 36°
2026-05-04 10:41 39.29471 -75.76548 29240 ft 492 kts 34°
2026-05-04 10:42 39.32120 -75.73708 29486 ft 498 kts 34°
2026-05-04 10:42 39.34762 -75.70885 29873 ft 500 kts 34°
2026-05-04 10:42 39.37444 -75.67999 30280 ft 502 kts 35°
2026-05-04 10:42 39.40114 -75.65100 30707 ft 502 kts 35°
2026-05-04 10:43 39.42788 -75.62178 30980 ft 505 kts 35°
2026-05-04 10:44 39.61861 -75.41124 32692 ft 523 kts 36°
2026-05-04 10:45 39.64646 -75.38044 32841 ft 527 kts 36°
2026-05-04 10:45 39.67430 -75.34955 33153 ft 527 kts 36°
2026-05-04 10:45 39.70216 -75.31856 33472 ft 527 kts 36°
2026-05-04 10:45 39.72995 -75.28760 33761 ft 527 kts 36°
2026-05-04 10:46 39.75782 -75.25654 34049 ft 527 kts 36°
2026-05-04 10:46 39.78524 -75.22479 34288 ft 530 kts 40°
2026-05-04 10:46 39.81061 -75.18984 34545 ft 532 kts 44°
2026-05-04 10:46 39.83541 -75.15409 34785 ft 532 kts 44°
2026-05-04 10:47 39.85990 -75.11802 35023 ft 532 kts 45°
2026-05-04 10:47 39.88423 -75.08177 35259 ft 532 kts 45°
2026-05-04 10:47 39.90850 -75.04545 35401 ft 533 kts 45°
2026-05-04 10:47 39.93288 -75.00895 35521 ft 536 kts 45°
2026-05-04 10:49 40.08298 -74.73125 36993 ft 536 kts 53°
2026-05-04 10:50 40.12447 -74.64959 37033 ft 541 kts 53°
2026-05-04 10:51 40.29438 -74.39587 37073 ft 529 kts 34°
2026-05-04 10:52 40.32293 -74.36554 37057 ft 527 kts 34°
2026-05-04 10:52 40.37996 -74.30507 37050 ft 528 kts 34°
2026-05-04 10:54 40.60730 -74.06048 37031 ft 528 kts 35°
2026-05-04 10:56 40.83414 -73.81373 37013 ft 529 kts 35°
2026-05-04 10:57 40.88403 -73.74161 36997 ft 535 kts 50°
2026-05-04 10:57 40.92778 -73.66169 36993 ft 537 kts 52°
2026-05-04 10:58 40.97047 -73.58048 36993 ft 538 kts 52°
2026-05-04 10:58 41.01316 -73.49907 37002 ft 538 kts 52°
2026-05-04 10:59 41.05594 -73.41770 36995 ft 538 kts 52°
2026-05-04 10:59 41.09875 -73.33633 36999 ft 538 kts 52°
2026-05-04 11:00 41.14149 -73.25489 36996 ft 538 kts 52°
2026-05-04 11:02 41.31118 -72.92786 36991 ft 538 kts 56°
2026-05-04 11:05 41.59693 -72.28089 36976 ft 541 kts 57°
2026-05-04 11:06 41.63506 -72.19417 36985 ft 542 kts 57°
2026-05-04 11:06 41.67315 -72.10729 36980 ft 541 kts 57°
2026-05-04 11:08 41.80957 -71.80660 36966 ft 537 kts 44°
2026-05-04 11:10 42.01117 -71.58920 36960 ft 530 kts 33°
2026-05-04 11:12 42.24446 -71.34530 36939 ft 530 kts 34°
2026-05-04 11:12 42.30271 -71.28398 36945 ft 530 kts 34°
2026-05-04 11:13 42.36081 -71.22267 36934 ft 529 kts 34°
2026-05-04 11:13 42.41851 -71.16164 36937 ft 529 kts 34°
2026-05-04 11:14 42.46551 -71.11183 36948 ft 529 kts 34°
2026-05-04 11:16 42.70341 -70.84725 36928 ft 533 kts 44°
2026-05-04 11:16 42.75261 -70.77143 36924 ft 536 kts 46°
2026-05-04 11:17 42.79325 -70.70684 36913 ft 536 kts 46°
2026-05-04 11:19 42.98660 -70.39824 36896 ft 535 kts 47°
2026-05-04 11:19 43.03493 -70.32078 36900 ft 535 kts 47°
2026-05-04 11:20 43.08320 -70.24321 36899 ft 535 kts 47°
2026-05-04 11:20 43.13140 -70.16555 36886 ft 535 kts 47°
2026-05-04 11:22 43.32336 -69.85415 36889 ft 534 kts 47°
2026-05-04 11:23 43.37116 -69.77609 36901 ft 534 kts 47°
2026-05-04 11:25 43.53774 -69.50241 36891 ft 534 kts 47°
2026-05-04 11:25 43.58523 -69.42392 36879 ft 533 kts 48°
2026-05-04 11:27 43.79828 -69.06910 36868 ft 533 kts 48°
2026-05-04 11:28 43.84547 -68.98991 36869 ft 533 kts 48°
2026-05-04 11:28 43.89265 -68.91055 36867 ft 534 kts 48°
2026-05-04 11:29 43.93985 -68.83092 36867 ft 534 kts 48°
2026-05-04 11:29 43.98699 -68.75116 36868 ft 534 kts 48°
2026-05-04 11:33 44.31507 -68.18989 36846 ft 534 kts 49°
2026-05-04 11:33 44.36172 -68.10919 36850 ft 534 kts 49°
2026-05-04 11:34 44.40837 -68.02826 36843 ft 534 kts 49°
2026-05-04 11:34 44.45458 -67.94788 36842 ft 533 kts 49°
2026-05-04 11:35 44.50101 -67.86687 36830 ft 533 kts 49°
2026-05-04 11:35 44.54737 -67.78576 36832 ft 533 kts 49°
2026-05-04 11:36 44.59373 -67.70442 36828 ft 533 kts 49°
2026-05-04 11:36 44.63999 -67.62301 36826 ft 533 kts 49°
2026-05-04 11:37 44.68616 -67.54155 36820 ft 533 kts 49°
2026-05-04 11:37 44.73229 -67.45993 36825 ft 532 kts 49°
2026-05-04 11:38 44.77827 -67.37831 36826 ft 532 kts 49°
2026-05-04 11:38 44.82426 -67.29647 36826 ft 532 kts 50°
2026-05-04 11:39 44.87013 -67.21461 36846 ft 532 kts 50°
2026-05-04 11:40 44.99761 -66.96054 37877 ft 531 kts 55°
2026-05-04 11:41 45.01792 -66.91695 38031 ft 530 kts 55°
2026-05-04 11:41 45.03832 -66.87359 38186 ft 530 kts 55°
2026-05-04 11:41 45.05883 -66.83031 38300 ft 530 kts 55°
2026-05-04 11:42 45.10001 -66.74373 38471 ft 531 kts 54°
2026-05-04 11:42 45.14130 -66.65681 38606 ft 532 kts 55°
2026-05-04 11:43 45.18250 -66.56976 38726 ft 532 kts 55°
2026-05-04 11:43 45.22376 -66.48226 38738 ft 534 kts 55°
2026-05-04 11:44 45.26493 -66.39465 38737 ft 534 kts 55°
2026-05-04 11:44 45.30607 -66.30684 38727 ft 533 kts 55°
2026-05-04 11:45 45.34707 -66.21906 38721 ft 532 kts 55°
2026-05-04 11:45 45.38801 -66.13115 38720 ft 532 kts 56°
2026-05-04 11:46 45.42883 -66.04322 38718 ft 532 kts 56°
2026-05-04 11:46 45.46957 -65.95518 38711 ft 532 kts 56°
2026-05-04 11:47 45.50997 -65.86761 38716 ft 531 kts 56°
2026-05-04 11:47 45.55049 -65.77950 38704 ft 531 kts 56°
2026-05-04 11:48 45.59094 -65.69128 38692 ft 531 kts 56°
2026-05-04 11:48 45.63123 -65.60313 38681 ft 529 kts 56°
2026-05-04 11:49 45.67134 -65.51510 38668 ft 529 kts 56°
2026-05-04 11:49 45.71141 -65.42689 38657 ft 529 kts 56°
2026-05-04 11:50 45.75142 -65.33853 38649 ft 528 kts 56°
2026-05-04 11:50 45.79134 -65.25009 38648 ft 528 kts 57°
2026-05-04 11:51 45.83114 -65.16163 38631 ft 528 kts 57°
2026-05-04 11:51 45.87090 -65.07300 38628 ft 528 kts 57°
2026-05-04 11:52 45.91056 -64.98430 38619 ft 528 kts 57°
2026-05-04 11:52 45.95012 -64.89553 38609 ft 528 kts 57°
2026-05-04 11:53 45.98967 -64.80653 38592 ft 528 kts 57°
2026-05-04 11:53 46.02913 -64.71744 38590 ft 528 kts 57°
2026-05-04 11:55 46.18627 -64.35981 38570 ft 530 kts 57°
2026-05-04 11:56 46.22555 -64.26968 38552 ft 530 kts 57°
2026-05-04 11:56 46.26478 -64.17939 38524 ft 530 kts 57°
2026-05-04 11:57 46.30418 -64.08841 38526 ft 530 kts 57°
2026-05-04 11:57 46.34330 -63.99779 38517 ft 531 kts 58°
2026-05-04 11:58 46.38210 -63.90761 38488 ft 532 kts 57°
2026-05-04 11:58 46.42140 -63.81596 38491 ft 532 kts 58°
2026-05-04 11:59 46.46008 -63.72548 38483 ft 532 kts 58°
2026-05-04 11:59 46.49931 -63.63337 38471 ft 533 kts 58°
2026-05-04 12:00 46.53162 -63.55730 38469 ft 532 kts 58°
2026-05-04 12:00 46.57672 -63.45075 38470 ft 532 kts 58°
2026-05-04 12:01 46.60887 -63.37458 38458 ft 532 kts 58°
2026-05-04 12:02 46.74422 -63.05146 38438 ft 534 kts 59°
2026-05-04 12:03 46.78276 -62.95876 38415 ft 535 kts 59°
2026-05-04 12:03 46.82122 -62.86590 38415 ft 534 kts 59°
2026-05-04 12:04 46.85971 -62.77270 38407 ft 536 kts 59°
2026-05-04 12:04 46.89816 -62.67928 38389 ft 536 kts 59°
2026-05-04 12:05 46.93656 -62.58565 38390 ft 537 kts 60°
2026-05-04 12:05 46.97481 -62.49206 38387 ft 535 kts 60°
2026-05-04 12:06 47.01289 -62.39857 38369 ft 534 kts 60°
2026-05-04 12:06 47.05085 -62.30504 38361 ft 533 kts 60°
2026-05-04 12:07 47.08873 -62.21141 38336 ft 535 kts 60°
2026-05-04 12:07 47.12670 -62.11724 38325 ft 537 kts 60°
2026-05-04 12:08 47.16468 -62.02271 38313 ft 536 kts 60°
2026-05-04 12:08 47.20239 -61.92852 38292 ft 533 kts 61°
2026-05-04 12:09 47.23991 -61.83449 38251 ft 533 kts 60°
2026-05-04 12:09 47.27739 -61.74021 38245 ft 533 kts 61°
2026-05-04 12:10 47.31471 -61.64601 38238 ft 530 kts 61°
2026-05-04 12:10 47.35172 -61.55230 38241 ft 528 kts 61°
2026-05-04 12:11 47.38860 -61.45858 38246 ft 528 kts 61°
2026-05-04 12:11 47.42538 -61.36477 38224 ft 528 kts 61°
2026-05-04 12:12 47.46211 -61.27077 38206 ft 529 kts 62°
2026-05-04 12:12 47.49878 -61.17660 38208 ft 529 kts 61°
2026-05-04 12:14 47.64440 -60.79930 38181 ft 526 kts 62°
2026-05-04 12:15 47.68027 -60.70553 38156 ft 526 kts 62°
2026-05-04 12:15 47.71629 -60.61106 38161 ft 525 kts 62°
2026-05-04 12:16 47.75219 -60.51658 38149 ft 525 kts 62°
2026-05-04 12:16 47.78806 -60.42179 38127 ft 527 kts 62°
2026-05-04 12:17 47.82394 -60.32668 38127 ft 527 kts 62°
2026-05-04 12:17 47.85970 -60.23156 38120 ft 526 kts 63°
2026-05-04 12:18 47.89533 -60.13644 38113 ft 525 kts 63°
2026-05-04 12:18 47.93084 -60.04127 38084 ft 525 kts 63°
2026-05-04 12:19 47.96626 -59.94601 38096 ft 525 kts 63°
2026-05-04 12:19 48.00161 -59.85061 38090 ft 524 kts 63°
2026-05-04 12:20 48.03680 -59.75529 38091 ft 524 kts 63°
2026-05-04 12:20 48.07190 -59.65987 38073 ft 524 kts 63°
2026-05-04 12:21 48.10704 -59.56398 38079 ft 526 kts 63°
2026-05-04 12:21 48.14217 -59.46779 38079 ft 526 kts 64°
2026-05-04 12:22 48.17720 -59.37154 38082 ft 526 kts 64°
2026-05-04 12:22 48.21212 -59.27520 38074 ft 526 kts 64°
2026-05-04 12:23 48.24694 -59.17880 38072 ft 526 kts 64°
2026-05-04 12:23 48.28165 -59.08237 38085 ft 525 kts 64°
2026-05-04 12:24 48.31624 -58.98589 38083 ft 524 kts 64°
2026-05-04 12:24 48.35072 -58.88937 38091 ft 524 kts 64°
2026-05-04 12:25 48.38508 -58.79281 38078 ft 524 kts 65°
2026-05-04 12:25 48.41943 -58.69593 38096 ft 524 kts 65°
2026-05-04 12:26 48.45370 -58.59893 38108 ft 524 kts 65°
2026-05-04 12:26 48.48789 -58.50178 38108 ft 524 kts 65°
2026-05-04 12:27 48.52199 -58.40454 38103 ft 524 kts 65°
2026-05-04 12:27 48.55598 -58.30726 38122 ft 523 kts 65°
2026-05-04 12:28 48.58984 -58.20996 38123 ft 523 kts 65°
2026-05-04 12:28 48.62359 -58.11261 38129 ft 523 kts 65°
2026-05-04 12:29 48.65705 -58.01573 38141 ft 523 kts 66°
2026-05-04 12:29 48.69062 -57.91818 38147 ft 522 kts 66°
2026-05-04 12:30 48.72416 -57.82030 38154 ft 526 kts 66°
2026-05-04 12:30 48.75788 -57.72154 38169 ft 529 kts 66°
2026-05-04 12:31 48.79162 -57.62237 38161 ft 529 kts 66°
2026-05-04 12:31 48.82528 -57.52309 38176 ft 529 kts 66°
2026-05-04 12:32 48.87552 -57.37411 38179 ft 528 kts 66°
2026-05-04 12:33 48.90893 -57.27455 38178 ft 528 kts 66°
2026-05-04 12:33 48.94226 -57.17483 38179 ft 530 kts 66°
2026-05-04 12:34 48.97557 -57.07479 38180 ft 530 kts 66°
2026-05-04 12:34 49.00881 -56.97456 38181 ft 530 kts 66°
2026-05-04 12:35 49.04196 -56.87424 38198 ft 530 kts 67°
2026-05-04 12:35 49.07481 -56.77441 38215 ft 530 kts 67°
2026-05-04 12:36 49.10775 -56.67391 38216 ft 529 kts 67°
2026-05-04 12:36 49.14062 -56.57323 38228 ft 529 kts 67°
2026-05-04 12:37 49.17335 -56.47254 38228 ft 529 kts 67°
2026-05-04 12:37 49.20600 -56.37175 38241 ft 528 kts 67°
2026-05-04 12:38 49.23849 -56.27104 38248 ft 527 kts 68°
2026-05-04 12:38 49.27084 -56.17034 38248 ft 527 kts 68°
2026-05-04 12:39 49.30312 -56.06945 38248 ft 527 kts 68°
2026-05-04 12:39 49.33520 -55.96881 38263 ft 524 kts 68°
2026-05-04 12:40 49.36710 -55.86835 38266 ft 523 kts 69°
2026-05-04 12:40 49.39882 -55.76797 38269 ft 523 kts 69°
2026-05-04 12:41 49.43046 -55.66745 38275 ft 523 kts 69°
2026-05-04 12:41 49.46199 -55.56692 38276 ft 521 kts 69°
2026-05-04 12:42 49.49335 -55.46651 38280 ft 520 kts 69°
2026-05-04 12:42 49.52460 -55.36605 38279 ft 520 kts 69°
2026-05-04 12:43 49.55574 -55.26552 38300 ft 520 kts 69°
2026-05-04 12:43 49.58679 -55.16487 38294 ft 519 kts 69°
2026-05-04 12:44 49.61768 -55.06438 38293 ft 519 kts 69°
2026-05-04 12:44 49.64332 -54.98059 38306 ft 519 kts 70°
2026-05-04 12:45 49.67405 -54.87981 38309 ft 519 kts 70°
2026-05-04 12:45 49.70475 -54.77875 38307 ft 518 kts 70°
2026-05-04 12:46 49.73512 -54.67834 38313 ft 516 kts 70°
2026-05-04 12:46 49.76551 -54.57747 38328 ft 516 kts 70°
2026-05-04 12:47 49.79570 -54.47680 38350 ft 516 kts 70°
2026-05-04 12:47 49.82581 -54.37603 38323 ft 515 kts 70°
2026-05-04 12:48 49.85484 -54.27514 38362 ft 511 kts 72°
2026-05-04 12:48 49.88355 -54.17515 38362 ft 511 kts 72°
2026-05-04 12:49 49.91300 -54.07463 38386 ft 513 kts 72°
2026-05-04 12:49 49.94263 -53.97389 38384 ft 513 kts 72°
2026-05-04 12:50 49.97220 -53.87303 38392 ft 512 kts 72°
2026-05-04 12:50 50.00163 -53.77214 38404 ft 512 kts 72°
2026-05-04 12:51 50.03091 -53.67124 38420 ft 512 kts 72°
2026-05-04 12:51 50.06011 -53.57017 38423 ft 512 kts 72°
2026-05-04 12:52 50.08921 -53.46901 38423 ft 512 kts 72°
2026-05-04 12:52 50.11824 -53.36769 38434 ft 512 kts 72°
2026-05-04 12:53 50.14715 -53.26637 38447 ft 512 kts 72°
2026-05-04 12:53 50.17596 -53.16496 38445 ft 511 kts 72°
2026-05-04 12:54 50.20474 -53.06321 38448 ft 513 kts 73°
2026-05-04 12:54 50.23352 -52.96096 38452 ft 515 kts 73°
2026-05-04 12:55 50.26226 -52.85850 38472 ft 514 kts 73°
2026-05-04 12:55 50.29092 -52.75591 38482 ft 514 kts 73°
2026-05-04 12:56 50.31942 -52.65343 38465 ft 514 kts 73°
2026-05-04 12:56 50.34784 -52.55074 38492 ft 514 kts 73°
2026-05-04 12:57 50.37616 -52.44796 38488 ft 514 kts 73°
2026-05-04 12:57 50.40440 -52.34504 38511 ft 514 kts 73°
2026-05-04 12:58 50.43256 -52.24196 38488 ft 514 kts 73°
2026-05-04 12:58 50.46041 -52.13956 38512 ft 514 kts 74°
2026-05-04 12:59 50.48841 -52.03612 38528 ft 517 kts 74°
2026-05-04 12:59 50.51633 -51.93168 38526 ft 518 kts 75°
2026-05-04 13:00 50.54347 -51.82693 38537 ft 518 kts 75°
2026-05-04 13:00 50.57041 -51.72211 38550 ft 518 kts 75°
2026-05-04 13:01 50.59745 -51.61679 38556 ft 518 kts 75°
2026-05-04 13:01 50.62444 -51.51150 38554 ft 518 kts 75°
2026-05-04 13:02 50.65132 -51.40620 38563 ft 518 kts 75°
2026-05-04 13:02 50.67810 -51.30076 38567 ft 518 kts 76°
2026-05-04 13:03 50.70481 -51.19507 38577 ft 519 kts 76°
2026-05-04 13:03 50.73147 -51.08912 38564 ft 519 kts 76°
2026-05-04 13:04 50.75811 -50.98266 38586 ft 523 kts 76°
2026-05-04 13:04 50.78476 -50.87568 38578 ft 523 kts 77°
2026-05-04 13:05 50.81130 -50.76872 38605 ft 522 kts 77°
2026-05-04 13:05 50.83773 -50.66169 38603 ft 522 kts 77°
2026-05-04 13:06 50.86404 -50.55454 38605 ft 522 kts 77°
2026-05-04 13:06 50.89006 -50.44804 38617 ft 522 kts 77°
2026-05-04 13:07 50.91619 -50.34060 38622 ft 523 kts 77°
2026-05-04 13:07 50.94223 -50.23294 38633 ft 523 kts 77°
2026-05-04 13:08 50.96822 -50.12504 38631 ft 523 kts 77°
2026-05-04 13:08 50.99412 -50.01699 38654 ft 525 kts 78°
2026-05-04 13:09 51.02061 -49.90850 38649 ft 529 kts 76°
2026-05-04 13:09 51.04741 -49.80298 38658 ft 524 kts 76°
2026-05-04 13:09 51.06152 -49.74789 38662 ft 512 kts 76°
2026-05-04 13:10 51.07484 -49.69536 38673 ft 514 kts 76°
2026-05-04 13:10 51.10132 -49.58904 38682 ft 520 kts 76°
2026-05-04 13:11 51.12788 -49.48137 38677 ft 524 kts 77°
2026-05-04 13:11 51.15442 -49.37349 38687 ft 528 kts 77°
2026-05-04 13:12 51.18117 -49.26448 38695 ft 528 kts 77°
2026-05-04 13:12 51.20782 -49.15545 38708 ft 527 kts 77°
2026-05-04 13:13 51.23432 -49.04638 38720 ft 527 kts 77°
2026-05-04 13:13 51.26070 -48.93725 38718 ft 528 kts 77°
2026-05-04 13:14 51.28712 -48.82725 38731 ft 532 kts 77°
2026-05-04 13:14 51.31357 -48.71669 38734 ft 532 kts 77°
2026-05-04 13:15 51.33992 -48.60612 38731 ft 532 kts 77°
2026-05-04 13:15 51.36616 -48.49533 38750 ft 533 kts 77°
2026-05-04 13:16 51.39233 -48.38422 38757 ft 534 kts 77°
2026-05-04 13:16 51.41841 -48.27299 38763 ft 534 kts 77°
2026-05-04 13:17 51.44440 -48.16156 38768 ft 534 kts 77°
2026-05-04 13:17 51.47029 -48.04999 38769 ft 535 kts 77°
2026-05-04 13:18 51.49619 -47.93767 38780 ft 538 kts 77°
2026-05-04 13:18 51.52206 -47.82497 38787 ft 538 kts 77°
2026-05-04 13:19 51.54769 -47.71268 38801 ft 539 kts 77°
2026-05-04 13:19 51.57344 -47.59933 38811 ft 540 kts 76°
2026-05-04 13:20 51.59917 -47.48545 38811 ft 541 kts 76°
2026-05-04 13:20 51.62477 -47.37155 38820 ft 541 kts 76°
2026-05-04 13:21 51.65024 -47.25756 38832 ft 541 kts 76°
2026-05-04 13:21 51.67561 -47.14337 38824 ft 541 kts 76°
2026-05-04 13:22 51.70085 -47.02912 38843 ft 541 kts 76°
2026-05-04 13:22 51.72597 -46.91490 38850 ft 541 kts 76°
2026-05-04 13:23 51.75096 -46.80054 38862 ft 540 kts 76°
2026-05-04 13:23 51.77587 -46.68593 38858 ft 540 kts 76°
2026-05-04 13:24 51.80065 -46.57131 38871 ft 541 kts 76°
2026-05-04 13:24 51.82535 -46.45641 38887 ft 541 kts 76°
2026-05-04 13:25 51.86216 -46.28393 38897 ft 541 kts 76°
2026-05-04 13:25 51.88656 -46.16878 38892 ft 541 kts 75°
2026-05-04 13:26 51.91084 -46.05358 38910 ft 540 kts 75°
2026-05-04 13:26 51.93499 -45.93832 38914 ft 540 kts 76°
2026-05-04 13:27 51.95903 -45.82294 38923 ft 540 kts 76°
2026-05-04 13:27 51.98295 -45.70740 38929 ft 540 kts 75°
2026-05-04 13:28 52.00678 -45.59169 38934 ft 541 kts 75°
2026-05-04 13:28 52.03037 -45.47647 38946 ft 542 kts 75°
2026-05-04 13:29 52.05407 -45.36001 38948 ft 542 kts 75°
2026-05-04 13:29 52.07763 -45.24359 38954 ft 542 kts 75°
2026-05-04 13:30 52.10113 -45.12671 38978 ft 544 kts 75°
2026-05-04 13:30 52.12060 -45.02940 38983 ft 544 kts 75°
2026-05-04 13:31 52.14390 -44.91227 38989 ft 544 kts 75°
2026-05-04 13:31 52.16709 -44.79502 38974 ft 544 kts 75°
2026-05-04 13:32 52.19016 -44.67756 39003 ft 544 kts 74°
2026-05-04 13:32 52.21315 -44.55991 39009 ft 545 kts 75°
2026-05-04 13:33 52.23604 -44.44201 39005 ft 545 kts 75°
2026-05-04 13:33 52.25863 -44.32488 39027 ft 545 kts 74°
2026-05-04 13:34 52.28127 -44.20678 39022 ft 545 kts 74°
2026-05-04 13:34 52.30382 -44.08854 39043 ft 545 kts 75°
2026-05-04 13:35 52.33748 -43.91056 39039 ft 545 kts 75°
2026-05-04 13:36 52.35971 -43.79204 39039 ft 545 kts 75°
2026-05-04 13:36 52.38181 -43.67331 39049 ft 546 kts 74°
2026-05-04 13:37 52.40383 -43.55450 39071 ft 546 kts 74°
2026-05-04 13:37 52.42577 -43.43532 39070 ft 546 kts 74°
2026-05-04 13:38 52.44758 -43.31603 39080 ft 546 kts 75°
2026-05-04 13:38 52.46924 -43.19672 39074 ft 545 kts 73°
2026-05-04 13:39 52.49071 -43.07769 39091 ft 543 kts 73°
2026-05-04 13:39 52.51204 -42.95878 39092 ft 543 kts 73°
2026-05-04 13:40 52.53328 -42.83961 39108 ft 543 kts 73°
2026-05-04 13:40 52.55437 -42.72034 39108 ft 543 kts 73°
2026-05-04 13:41 52.57529 -42.60128 39125 ft 541 kts 73°
2026-05-04 13:41 52.59607 -42.48231 39138 ft 541 kts 73°
2026-05-04 13:42 52.62697 -42.30387 39146 ft 541 kts 73°
2026-05-04 13:42 52.64742 -42.18464 39148 ft 539 kts 73°
2026-05-04 13:43 52.66748 -42.06693 39163 ft 536 kts 73°
2026-05-04 13:43 52.68753 -41.94867 39150 ft 536 kts 72°
2026-05-04 13:44 52.70745 -41.83028 39162 ft 536 kts 73°
2026-05-04 13:44 52.72692 -41.71381 39195 ft 536 kts 73°
2026-05-04 13:45 52.74688 -41.59338 39180 ft 532 kts 73°
2026-05-04 13:45 52.76629 -41.47561 39188 ft 531 kts 73°
2026-05-04 13:46 52.78556 -41.35794 39188 ft 531 kts 73°
2026-05-04 13:46 52.80473 -41.24007 39203 ft 531 kts 73°
2026-05-04 13:47 52.82372 -41.12232 39206 ft 529 kts 73°
2026-05-04 13:47 52.84253 -41.00492 39214 ft 527 kts 73°
2026-05-04 13:48 52.86109 -40.88836 39223 ft 527 kts 73°
2026-05-04 13:48 52.87964 -40.77098 39221 ft 527 kts 73°
2026-05-04 13:49 52.89809 -40.65341 39249 ft 528 kts 73°
2026-05-04 13:49 52.91653 -40.53514 39237 ft 532 kts 74°
2026-05-04 13:50 52.93494 -40.41611 39246 ft 533 kts 74°
2026-05-04 13:50 52.95321 -40.29704 39246 ft 533 kts 74°
2026-05-04 13:51 52.97137 -40.17788 39254 ft 533 kts 74°
2026-05-04 13:51 52.98937 -40.05879 39259 ft 530 kts 73°
2026-05-04 13:52 53.02624 -39.88744 39263 ft 523 kts 65°
2026-05-04 13:53 53.05400 -39.77660 39263 ft 523 kts 64°
2026-05-04 13:53 53.08206 -39.66515 39284 ft 522 kts 64°
2026-05-04 13:54 53.12347 -39.49875 39287 ft 517 kts 64°
2026-05-04 13:55 53.16441 -39.33262 39287 ft 517 kts 64°
2026-05-04 13:55 53.20511 -39.16617 39292 ft 517 kts 64°
2026-05-04 13:56 53.23209 -39.05508 39295 ft 517 kts 64°
2026-05-04 13:57 53.27240 -38.88810 39295 ft 516 kts 65°
2026-05-04 13:58 53.32562 -38.66567 39307 ft 518 kts 65°
2026-05-04 13:58 53.36551 -38.49745 39315 ft 518 kts 65°
2026-05-04 13:59 53.39196 -38.38511 39320 ft 518 kts 65°
2026-05-04 14:00 53.43146 -38.21634 39319 ft 519 kts 65°
2026-05-04 14:00 53.47075 -38.04712 39333 ft 520 kts 66°
2026-05-04 14:01 53.49686 -37.93388 39341 ft 520 kts 66°
2026-05-04 14:02 53.53584 -37.76373 39337 ft 519 kts 66°
2026-05-04 14:02 53.56158 -37.65055 39333 ft 518 kts 66°
2026-05-04 14:03 53.58721 -37.53733 39343 ft 518 kts 66°
2026-05-04 14:03 53.61277 -37.42386 39344 ft 518 kts 66°
2026-05-04 14:04 53.65068 -37.25433 39341 ft 517 kts 67°
2026-05-04 14:04 53.67591 -37.14070 39346 ft 517 kts 67°
2026-05-04 14:05 53.71353 -36.97016 39351 ft 517 kts 67°
2026-05-04 14:06 53.73849 -36.85623 39381 ft 517 kts 67°
2026-05-04 14:06 53.76333 -36.74229 39359 ft 517 kts 68°
2026-05-04 14:07 53.78809 -36.62797 39361 ft 517 kts 68°
2026-05-04 14:07 53.81223 -36.51592 39358 ft 517 kts 68°
2026-05-04 14:08 53.83723 -36.39902 39351 ft 517 kts 68°
2026-05-04 14:08 53.86161 -36.28445 39369 ft 517 kts 69°
2026-05-04 14:09 53.89805 -36.11248 39364 ft 517 kts 69°
2026-05-04 14:10 53.93405 -35.94092 39374 ft 517 kts 69°
2026-05-04 14:10 53.95801 -35.82589 39375 ft 516 kts 69°
2026-05-04 14:11 53.98179 -35.71102 39371 ft 515 kts 69°
2026-05-04 14:11 54.01721 -35.53873 39370 ft 515 kts 70°
2026-05-04 14:12 54.04068 -35.42374 39374 ft 515 kts 70°
2026-05-04 14:13 54.07550 -35.25191 39376 ft 514 kts 70°
2026-05-04 14:13 54.09838 -35.13824 39378 ft 506 kts 70°
2026-05-04 14:14 54.12126 -35.02393 39377 ft 512 kts 70°
2026-05-04 14:14 54.15561 -34.85081 39385 ft 514 kts 71°
2026-05-04 14:15 54.20089 -34.62028 39384 ft 513 kts 71°
2026-05-04 14:16 54.23101 -34.46547 39385 ft 514 kts 71°
2026-05-04 14:17 54.26818 -34.27265 39385 ft 514 kts 71°
2026-05-04 14:18 54.29785 -34.11730 39387 ft 514 kts 71°
2026-05-04 14:19 54.34177 -33.88504 39398 ft 514 kts 71°
2026-05-04 14:19 54.36357 -33.76869 39384 ft 513 kts 72°
2026-05-04 14:20 54.38529 -33.65198 39384 ft 513 kts 72°
2026-05-04 14:20 54.40690 -33.53516 39385 ft 513 kts 72°
2026-05-04 14:21 54.43911 -33.35974 39400 ft 513 kts 72°
2026-05-04 14:21 54.46042 -33.24267 39389 ft 513 kts 72°
2026-05-04 14:22 54.48160 -33.12565 39389 ft 513 kts 72°
2026-05-04 14:22 54.50268 -33.00842 39392 ft 513 kts 72°
2026-05-04 14:23 54.53407 -32.83244 39400 ft 513 kts 73°
2026-05-04 14:24 54.55486 -32.71494 39390 ft 512 kts 73°
2026-05-04 14:24 54.57551 -32.59745 39389 ft 512 kts 73°
2026-05-04 14:25 54.59594 -32.48047 39392 ft 513 kts 73°
2026-05-04 14:25 54.62659 -32.30354 39393 ft 512 kts 73°
2026-05-04 14:26 54.64683 -32.18573 39386 ft 512 kts 73°
2026-05-04 14:26 54.66695 -32.06779 39387 ft 512 kts 73°
2026-05-04 14:27 54.68696 -31.94974 39384 ft 512 kts 73°
2026-05-04 14:27 54.70686 -31.83157 39386 ft 512 kts 73°
2026-05-04 14:28 54.72663 -31.71335 39387 ft 512 kts 74°
2026-05-04 14:28 54.74627 -31.59506 39384 ft 511 kts 74°
2026-05-04 14:29 54.78510 -31.35889 39381 ft 511 kts 74°
2026-05-04 14:30 54.80442 -31.24013 39378 ft 511 kts 74°
2026-05-04 14:31 54.83260 -31.06541 39379 ft 511 kts 75°
2026-05-04 14:32 54.86972 -30.82761 39389 ft 509 kts 78°
2026-05-04 14:32 54.88782 -30.70808 39378 ft 509 kts 76°
2026-05-04 14:33 54.90637 -30.59075 39376 ft 505 kts 70°
2026-05-04 14:33 54.92408 -30.47228 39294 ft 503 kts 72°
2026-05-04 14:34 54.94215 -30.35574 39289 ft 497 kts 72°
2026-05-04 14:34 54.95874 -30.23790 39455 ft 487 kts 75°
2026-05-04 14:35 54.97770 -30.12369 39376 ft 496 kts 74°
2026-05-04 14:35 54.99683 -30.00732 39369 ft 503 kts 75°
2026-05-04 14:36 55.01472 -29.88864 39364 ft 510 kts 76°
2026-05-04 14:36 55.03167 -29.76836 39364 ft 511 kts 77°
2026-05-04 14:37 55.04848 -29.64795 39364 ft 510 kts 77°
2026-05-04 14:37 55.06528 -29.52776 39363 ft 510 kts 77°
2026-05-04 14:38 55.08203 -29.40745 39363 ft 510 kts 77°
2026-05-04 14:38 55.09869 -29.28705 39360 ft 510 kts 77°
2026-05-04 14:39 55.11522 -29.16647 39359 ft 510 kts 77°
2026-05-04 14:39 55.13161 -29.04599 39359 ft 510 kts 77°
2026-05-04 14:40 55.15599 -28.86490 39360 ft 510 kts 77°
2026-05-04 14:40 55.17208 -28.74413 39361 ft 510 kts 77°
2026-05-04 14:41 55.18808 -28.62306 39361 ft 510 kts 77°
2026-05-04 14:42 55.21966 -28.38106 39357 ft 510 kts 78°
2026-05-04 14:42 55.23529 -28.25983 39357 ft 510 kts 78°
2026-05-04 14:43 55.25070 -28.13924 39354 ft 510 kts 78°
2026-05-04 14:43 55.26609 -28.01781 39357 ft 510 kts 78°
2026-05-04 14:44 55.28134 -27.89639 39351 ft 510 kts 78°
2026-05-04 14:44 55.29647 -27.77491 39353 ft 510 kts 78°
2026-05-04 14:45 55.31148 -27.65325 39348 ft 510 kts 78°
2026-05-04 14:45 55.32637 -27.53156 39349 ft 510 kts 78°
2026-05-04 14:46 55.34113 -27.40987 39347 ft 509 kts 79°
2026-05-04 14:46 55.35577 -27.28802 39347 ft 509 kts 79°
2026-05-04 14:47 55.37031 -27.16595 39347 ft 509 kts 79°
2026-05-04 14:47 55.38471 -27.04398 39341 ft 510 kts 79°
2026-05-04 14:48 55.39899 -26.92181 39336 ft 510 kts 79°
2026-05-04 14:48 55.41306 -26.80042 39340 ft 509 kts 79°
2026-05-04 14:49 55.42710 -26.67808 39334 ft 509 kts 79°
2026-05-04 14:49 55.44100 -26.55583 39332 ft 509 kts 79°
2026-05-04 14:50 55.45479 -26.43339 39341 ft 509 kts 79°
2026-05-04 14:50 55.46845 -26.31098 39337 ft 509 kts 79°
2026-05-04 14:51 55.48199 -26.18839 39330 ft 509 kts 79°
2026-05-04 14:51 55.49540 -26.06581 39334 ft 509 kts 80°
2026-05-04 14:52 55.50870 -25.94307 39321 ft 509 kts 80°
2026-05-04 14:52 55.52186 -25.82035 39321 ft 509 kts 80°
2026-05-04 14:53 55.53491 -25.69742 39317 ft 509 kts 80°
2026-05-04 14:53 55.54775 -25.57531 39316 ft 509 kts 80°
2026-05-04 14:54 55.56054 -25.45237 39314 ft 509 kts 80°
2026-05-04 14:54 55.57296 -25.33180 39321 ft 509 kts 80°
2026-05-04 14:55 55.58576 -25.20613 39314 ft 509 kts 81°
2026-05-04 14:55 55.59820 -25.08277 39307 ft 509 kts 81°
2026-05-04 14:56 55.61050 -24.95961 39301 ft 508 kts 81°
2026-05-04 14:56 55.62267 -24.83632 39303 ft 508 kts 81°
2026-05-04 14:57 55.63471 -24.71296 39308 ft 508 kts 81°
2026-05-04 14:57 55.64663 -24.58959 39300 ft 508 kts 81°
2026-05-04 14:58 55.65834 -24.46707 39301 ft 508 kts 81°
2026-05-04 14:58 55.66811 -24.36368 39295 ft 508 kts 81°
2026-05-04 14:59 55.68153 -24.22018 39295 ft 508 kts 81°
2026-05-04 15:00 55.69858 -24.03499 39291 ft 507 kts 82°
2026-05-04 15:00 55.70987 -23.91059 39289 ft 507 kts 82°
2026-05-04 15:01 55.72636 -23.72628 39279 ft 507 kts 82°
2026-05-04 15:01 55.73733 -23.60177 39281 ft 507 kts 82°
2026-05-04 15:02 55.74803 -23.47891 39276 ft 507 kts 82°
2026-05-04 15:02 55.75869 -23.35510 39276 ft 507 kts 82°
2026-05-04 15:03 55.76921 -23.23124 39275 ft 507 kts 82°
2026-05-04 15:03 55.77962 -23.10728 39276 ft 507 kts 82°
2026-05-04 15:04 55.78988 -22.98344 39273 ft 507 kts 82°
2026-05-04 15:04 55.79834 -22.88020 39273 ft 507 kts 83°
2026-05-04 15:05 55.80838 -22.75611 39270 ft 507 kts 83°
2026-05-04 15:05 55.81831 -22.63193 39269 ft 507 kts 83°
2026-05-04 15:06 55.82793 -22.50995 39277 ft 507 kts 83°
2026-05-04 15:07 55.84256 -22.32129 39263 ft 507 kts 83°
2026-05-04 15:07 55.85203 -22.19709 39261 ft 507 kts 83°
2026-05-04 15:08 55.86138 -22.07274 39259 ft 507 kts 83°
2026-05-04 15:08 55.87061 -21.94837 39260 ft 507 kts 83°
2026-05-04 15:09 55.87970 -21.82395 39251 ft 506 kts 83°
2026-05-04 15:09 55.88867 -21.69960 39254 ft 506 kts 83°
2026-05-04 15:10 55.90188 -21.51288 39251 ft 506 kts 84°
2026-05-04 15:11 55.91481 -21.32602 39251 ft 506 kts 84°
2026-05-04 15:11 55.92328 -21.20140 39243 ft 507 kts 84°
2026-05-04 15:12 55.93162 -21.07663 39244 ft 507 kts 84°
2026-05-04 15:12 55.93983 -20.95195 39237 ft 507 kts 84°
2026-05-04 15:13 55.94788 -20.82779 39232 ft 507 kts 84°
2026-05-04 15:13 55.95584 -20.70288 39229 ft 507 kts 84°
2026-05-04 15:14 55.96369 -20.57772 39234 ft 507 kts 84°
2026-05-04 15:14 55.97142 -20.45253 39236 ft 507 kts 84°
2026-05-04 15:15 55.97902 -20.32725 39226 ft 507 kts 84°
2026-05-04 15:15 55.98648 -20.20209 39234 ft 507 kts 84°
2026-05-04 15:16 55.99745 -20.01397 39224 ft 507 kts 85°
2026-05-04 15:17 56.00330 -19.82555 39212 ft 507 kts 90°
2026-05-04 15:17 56.00527 -19.63654 39228 ft 507 kts 89°
2026-05-04 15:18 56.00712 -19.51052 39222 ft 507 kts 89°
2026-05-04 15:19 56.01007 -19.32162 39207 ft 507 kts 89°
2026-05-04 15:19 56.01274 -19.13341 39204 ft 507 kts 89°
2026-05-04 15:20 56.01434 -19.00726 39208 ft 507 kts 89°
2026-05-04 15:20 56.01581 -18.88132 39202 ft 506 kts 90°
2026-05-04 15:21 56.01716 -18.75589 39204 ft 504 kts 90°
2026-05-04 15:22 56.01894 -18.56827 39200 ft 498 kts 90°
2026-05-04 15:22 56.01947 -18.50717 39216 ft 487 kts 90°
2026-05-04 15:22 56.02044 -18.38723 39198 ft 480 kts 90°
2026-05-04 15:23 56.02128 -18.26749 39189 ft 484 kts 90°
2026-05-04 15:23 56.02195 -18.14626 39192 ft 492 kts 90°
2026-05-04 15:24 56.02291 -17.89913 39184 ft 506 kts 90°
2026-05-04 15:25 56.02323 -17.77325 39186 ft 506 kts 90°
2026-05-04 15:26 56.02349 -17.58443 39185 ft 506 kts 91°
2026-05-04 15:26 56.02348 -17.39575 39187 ft 506 kts 91°
2026-05-04 15:27 56.02318 -17.20713 39180 ft 506 kts 91°
2026-05-04 15:28 56.02259 -17.01851 39178 ft 506 kts 91°
2026-05-04 15:29 56.02171 -16.82983 39181 ft 506 kts 91°
2026-05-04 15:30 56.01853 -16.38900 39173 ft 507 kts 92°
2026-05-04 15:31 56.01670 -16.20120 39166 ft 505 kts 92°
2026-05-04 15:32 56.01300 -15.88705 39157 ft 506 kts 92°
2026-05-04 15:34 56.00850 -15.57285 39149 ft 506 kts 92°
2026-05-04 15:34 56.00541 -15.38423 39152 ft 506 kts 92°
2026-05-04 15:35 56.00204 -15.19582 39146 ft 506 kts 92°
2026-05-04 15:36 55.99839 -15.00756 39149 ft 506 kts 93°
2026-05-04 15:36 55.99738 -14.88185 39155 ft 506 kts 90°
2026-05-04 15:37 55.99832 -14.75714 39139 ft 506 kts 90°
2026-05-04 15:37 55.99906 -14.63152 39135 ft 506 kts 90°
2026-05-04 15:38 55.99929 -14.50589 39136 ft 506 kts 91°
2026-05-04 15:38 55.99923 -14.38013 39124 ft 506 kts 91°
2026-05-04 15:39 55.99902 -14.25460 39138 ft 505 kts 91°
2026-05-04 15:40 55.99850 -14.06634 39133 ft 505 kts 91°
2026-05-04 15:40 56.00694 -13.94204 39130 ft 505 kts 78°
2026-05-04 15:41 56.02321 -13.82002 39272 ft 504 kts 76°
2026-05-04 15:41 56.03183 -13.75943 39452 ft 503 kts 76°
2026-05-04 15:41 56.04050 -13.69891 39598 ft 502 kts 76°
2026-05-04 15:41 56.04915 -13.63831 39710 ft 503 kts 76°
2026-05-04 15:42 56.05771 -13.57770 39836 ft 503 kts 76°
2026-05-04 15:42 56.06620 -13.51703 39949 ft 502 kts 76°
2026-05-04 15:42 56.07463 -13.45635 40078 ft 502 kts 76°
2026-05-04 15:42 56.08301 -13.39558 40191 ft 502 kts 76°
2026-05-04 15:43 56.09133 -13.33492 40296 ft 502 kts 76°
2026-05-04 15:43 56.09964 -13.27409 40418 ft 502 kts 77°
2026-05-04 15:43 56.10791 -13.21332 40509 ft 502 kts 77°
2026-05-04 15:44 56.12428 -13.09233 40686 ft 503 kts 77°
2026-05-04 15:44 56.14064 -12.97043 40880 ft 503 kts 77°
2026-05-04 15:45 56.15687 -12.84847 41073 ft 503 kts 77°
2026-05-04 15:45 56.17302 -12.72610 41107 ft 505 kts 77°
2026-05-04 15:46 56.18910 -12.60318 41103 ft 505 kts 77°
2026-05-04 15:46 56.20507 -12.48014 41103 ft 506 kts 77°
2026-05-04 15:47 56.22092 -12.35689 41105 ft 506 kts 77°
2026-05-04 15:47 56.23665 -12.23363 41110 ft 506 kts 77°
2026-05-04 15:48 56.25227 -12.11010 41093 ft 507 kts 77°
2026-05-04 15:48 56.27551 -11.92425 41091 ft 507 kts 77°
2026-05-04 15:49 56.29073 -11.80124 41094 ft 507 kts 78°
2026-05-04 15:49 56.30593 -11.67722 41094 ft 507 kts 78°
2026-05-04 15:50 56.32101 -11.55316 41096 ft 507 kts 78°
2026-05-04 15:50 56.33596 -11.42896 41088 ft 508 kts 78°
2026-05-04 15:51 56.35082 -11.30451 41086 ft 508 kts 78°
2026-05-04 15:51 56.36316 -11.20014 41086 ft 508 kts 78°
2026-05-04 15:52 56.37780 -11.07541 41083 ft 508 kts 78°
2026-05-04 15:52 56.39220 -10.95146 41088 ft 508 kts 78°
2026-05-04 15:53 56.40669 -10.82565 41078 ft 509 kts 78°
2026-05-04 15:53 56.42088 -10.70122 41078 ft 509 kts 78°
2026-05-04 15:54 56.43513 -10.57507 41075 ft 509 kts 79°
2026-05-04 15:54 56.44907 -10.45044 41075 ft 509 kts 79°
2026-05-04 15:55 56.46296 -10.32502 41073 ft 510 kts 79°
2026-05-04 15:55 56.47677 -10.19911 41072 ft 510 kts 79°
2026-05-04 15:56 56.49045 -10.07319 41072 ft 510 kts 79°
2026-05-04 15:56 56.50366 -9.94687 41072 ft 510 kts 81°
2026-05-04 15:57 56.51290 -9.81952 41073 ft 511 kts 84°
2026-05-04 15:57 56.52096 -9.69160 41066 ft 512 kts 84°
2026-05-04 15:58 56.52943 -9.56347 41067 ft 512 kts 83°
2026-05-04 15:58 56.53818 -9.43541 41059 ft 512 kts 83°
2026-05-04 15:59 56.54691 -9.30743 41059 ft 512 kts 83°
2026-05-04 15:59 56.55550 -9.17926 41056 ft 512 kts 83°
2026-05-04 16:00 56.56394 -9.05092 41060 ft 513 kts 84°
2026-05-04 16:00 56.56802 -8.98821 41061 ft 513 kts 84°
2026-05-04 16:01 56.57627 -8.85957 41063 ft 513 kts 84°
2026-05-04 16:01 56.58438 -8.73090 41054 ft 513 kts 84°
2026-05-04 16:02 56.59231 -8.60313 41053 ft 514 kts 84°
2026-05-04 16:03 56.60405 -8.40981 41053 ft 514 kts 84°
2026-05-04 16:03 56.61171 -8.28076 41048 ft 514 kts 84°
2026-05-04 16:04 56.61924 -8.15173 41047 ft 514 kts 84°
2026-05-04 16:04 56.63030 -7.95776 41047 ft 515 kts 85°
2026-05-04 16:05 56.63750 -7.82838 41050 ft 515 kts 85°
2026-05-04 16:06 56.64805 -7.63429 41048 ft 515 kts 85°
2026-05-04 16:07 56.66168 -7.37481 41049 ft 516 kts 85°
2026-05-04 16:08 56.67477 -7.11503 41059 ft 516 kts 85°
2026-05-04 16:09 56.69037 -6.79009 41062 ft 515 kts 86°
2026-05-04 16:10 56.70224 -6.53014 41042 ft 515 kts 86°
2026-05-04 16:11 56.71352 -6.27097 41040 ft 515 kts 86°
2026-05-04 16:12 56.72950 -5.88031 41039 ft 515 kts 87°
2026-05-04 16:13 56.73947 -5.61971 41047 ft 516 kts 87°
2026-05-04 16:14 56.74890 -5.35901 41043 ft 516 kts 87°
2026-05-04 16:16 56.75993 -5.03268 41029 ft 516 kts 88°
2026-05-04 16:17 56.77009 -4.70622 41026 ft 516 kts 88°
2026-05-04 16:18 56.77763 -4.44465 41022 ft 516 kts 88°
2026-05-04 16:19 56.78625 -4.11850 41008 ft 516 kts 89°
2026-05-04 16:20 56.79404 -3.79157 41003 ft 516 kts 89°
2026-05-04 16:22 56.80097 -3.46458 40978 ft 516 kts 89°
2026-05-04 16:23 56.80814 -3.07222 40989 ft 517 kts 90°
2026-05-04 16:25 56.81411 -2.67868 40972 ft 517 kts 90°
2026-05-04 16:26 56.81947 -2.22225 40981 ft 512 kts 90°
2026-05-04 16:28 56.82154 -1.89783 40980 ft 512 kts 91°
2026-05-04 16:29 56.82118 -1.44220 40990 ft 513 kts 92°
2026-05-04 16:31 56.82013 -1.11645 40993 ft 513 kts 92°
2026-05-04 16:32 56.81775 -0.73001 40993 ft 512 kts 93°
2026-05-04 16:33 56.81541 -0.46588 40998 ft 512 kts 93°
2026-05-04 16:34 56.81340 -0.27156 40998 ft 512 kts 93°
2026-05-04 16:35 56.80838 0.11852 40999 ft 513 kts 94°
2026-05-04 16:36 56.80573 0.29271 40998 ft 513 kts 94°
2026-05-04 16:37 56.80250 0.48713 40996 ft 513 kts 94°
2026-05-04 16:38 56.79919 0.74772 41001 ft 514 kts 92°
2026-05-04 16:39 56.79272 1.07382 41004 ft 515 kts 92°
2026-05-04 16:40 56.78663 1.33476 41004 ft 515 kts 93°
2026-05-04 16:41 56.77828 1.66196 40990 ft 515 kts 93°
2026-05-04 16:43 56.76912 1.98762 40993 ft 516 kts 93°
2026-05-04 16:43 56.76319 2.18363 41002 ft 516 kts 94°
2026-05-04 16:45 56.75040 2.57586 41002 ft 517 kts 94°
2026-05-04 16:46 56.73890 2.89978 41015 ft 517 kts 94°
2026-05-04 16:47 56.72888 3.16443 41010 ft 518 kts 94°
2026-05-04 16:48 56.71842 3.42595 40994 ft 518 kts 95°
2026-05-04 16:49 56.70740 3.68754 41009 ft 518 kts 95°
2026-05-04 16:50 56.67896 3.94320 40996 ft 517 kts 104°
2026-05-04 16:51 56.65389 4.13411 41008 ft 517 kts 104°
2026-05-04 16:52 56.62035 4.38839 40993 ft 518 kts 104°
2026-05-04 16:53 56.59493 4.57892 40989 ft 518 kts 104°
2026-05-04 16:54 56.56055 4.83270 40991 ft 518 kts 105°
2026-05-04 16:55 56.51695 5.21639 40999 ft 519 kts 99°
2026-05-04 16:56 56.48695 5.53839 40997 ft 519 kts 100°
2026-05-04 16:57 56.46827 5.73119 40993 ft 519 kts 101°
2026-05-04 16:58 56.44295 5.98725 41005 ft 519 kts 101°
2026-05-04 17:00 56.40398 6.37061 41000 ft 516 kts 101°
2026-05-04 17:01 56.37388 6.65851 40999 ft 516 kts 101°
2026-05-04 17:02 56.34673 6.91249 40989 ft 516 kts 102°
2026-05-04 17:03 56.32603 7.10275 40993 ft 516 kts 102°
2026-05-04 17:03 56.30504 7.29278 40996 ft 516 kts 102°
2026-05-04 17:04 56.27661 7.54578 40993 ft 516 kts 102°
2026-05-04 17:05 56.24763 7.79865 40993 ft 516 kts 103°
2026-05-04 17:06 56.22555 7.98814 40993 ft 516 kts 103°
2026-05-04 17:07 56.20569 8.15626 40993 ft 517 kts 103°
2026-05-04 17:07 56.18804 8.30393 40990 ft 517 kts 103°
2026-05-04 17:08 56.16530 8.49198 40487 ft 515 kts 103°
2026-05-04 17:08 56.15755 8.55547 40246 ft 515 kts 103°
2026-05-04 17:09 56.14996 8.61734 40012 ft 515 kts 103°
2026-05-04 17:09 56.14212 8.68098 39778 ft 515 kts 103°
2026-05-04 17:09 56.13436 8.74366 39544 ft 516 kts 104°
2026-05-04 17:10 56.11891 8.86770 38628 ft 512 kts 104°
2026-05-04 17:10 56.09543 9.05404 36611 ft 509 kts 104°
2026-05-04 17:11 56.08760 9.11571 35956 ft 508 kts 104°
2026-05-04 17:11 56.07973 9.17736 35280 ft 508 kts 104°
2026-05-04 17:11 56.06390 9.30057 33817 ft 509 kts 104°
2026-05-04 17:12 56.05593 9.36221 33116 ft 506 kts 104°
2026-05-04 17:12 56.04017 9.48341 32084 ft 494 kts 104°
2026-05-04 17:13 56.01692 9.66038 30502 ft 481 kts 104°
2026-05-04 17:14 55.99404 9.83241 28923 ft 466 kts 104°
2026-05-04 17:14 55.98653 9.88839 28432 ft 461 kts 104°
2026-05-04 17:14 55.97208 9.99563 27494 ft 451 kts 104°
2026-05-04 17:15 55.96436 10.05257 26972 ft 446 kts 105°
2026-05-04 17:15 55.94981 10.15934 26007 ft 439 kts 105°
2026-05-04 17:16 55.93545 10.26434 25087 ft 431 kts 105°
2026-05-04 17:16 55.91823 10.42507 24342 ft 448 kts 101°
2026-05-04 17:17 55.91265 10.47952 24107 ft 447 kts 101°
2026-05-04 17:17 55.89589 10.64245 23384 ft 444 kts 101°
2026-05-04 17:18 55.89029 10.69643 23106 ft 443 kts 101°
2026-05-04 17:18 55.88104 10.78519 22431 ft 434 kts 102°
2026-05-04 17:19 55.87003 10.89001 21371 ft 428 kts 102°
2026-05-04 17:19 55.85906 10.99340 20303 ft 423 kts 102°
2026-05-04 17:20 55.84814 11.09559 19242 ft 418 kts 102°
2026-05-04 17:20 55.83726 11.19650 18184 ft 413 kts 102°
2026-05-04 17:20 55.83189 11.24608 17625 ft 409 kts 102°
2026-05-04 17:21 55.82155 11.34107 16878 ft 369 kts 102°
2026-05-04 17:21 55.81197 11.42823 15797 ft 355 kts 102°
2026-05-04 17:22 55.80570 11.48484 15269 ft 351 kts 102°
2026-05-04 17:22 55.80251 11.51358 14996 ft 349 kts 102°
2026-05-04 17:23 55.78856 11.63864 13902 ft 338 kts 102°
2026-05-04 17:23 55.78407 11.67872 13633 ft 323 kts 103°
2026-05-04 17:23 55.77544 11.75528 12375 ft 311 kts 102°
2026-05-04 17:24 55.77121 11.79261 11822 ft 305 kts 102°
2026-05-04 17:24 55.75405 11.89997 10672 ft 293 kts 122°
2026-05-04 17:25 55.74367 11.93089 10320 ft 292 kts 124°
2026-05-04 17:25 55.72237 11.99153 9564 ft 287 kts 124°
2026-05-04 17:26 55.70128 12.05097 8759 ft 282 kts 124°
2026-05-04 17:26 55.67010 12.13806 7861 ft 276 kts 125°
2026-05-04 17:27 55.65007 12.19585 7361 ft 276 kts 115°
2026-05-04 17:27 55.65166 12.26088 6858 ft 270 kts 61°
2026-05-04 17:28 55.67086 12.31765 6386 ft 266 kts 55°
2026-05-04 17:29 55.69970 12.39837 5629 ft 253 kts 55°
2026-05-04 17:29 55.72751 12.47741 4870 ft 250 kts 55°
2026-05-04 17:30 55.75478 12.55543 4088 ft 245 kts 54°
2026-05-04 17:31 55.77259 12.60654 3985 ft 243 kts 55°
2026-05-04 17:31 55.79943 12.68323 3987 ft 244 kts 55°
2026-05-04 17:32 55.81730 12.73430 3985 ft 243 kts 55°
2026-05-04 17:33 55.81576 12.82065 3977 ft 242 kts 114°
2026-05-04 17:33 55.80898 12.84725 3869 ft 231 kts 116°
2026-05-04 17:34 55.77030 12.87666 3021 ft 211 kts 193°
2026-05-04 17:34 55.75637 12.86936 2983 ft 207 kts 212°
2026-05-04 17:35 55.72457 12.82160 2707 ft 191 kts 224°
2026-05-04 17:35 55.70480 12.79089 2145 ft 185 kts 225°
2026-05-04 17:35 55.69548 12.77643 1911 ft 170 kts 225°
2026-05-04 17:36 55.68690 12.76309 1685 ft 159 kts 225°
2026-05-04 17:36 55.67870 12.75033 1462 ft 156 kts 226°
2026-05-04 17:36 55.67051 12.73757 1241 ft 157 kts 226°
2026-05-04 17:36 55.66228 12.72478 1026 ft 158 kts 225°
2026-05-04 17:37 55.65403 12.71195 801 ft 157 kts 225°
2026-05-04 17:37 55.64614 12.69972 593 ft 147 kts 224°
2026-05-04 17:37 55.63853 12.68791 381 ft 145 kts 226°
2026-05-04 17:37 55.63108 12.67653 222 ft 138 kts 225°
2026-05-04 17:38 55.62408 12.66571 51 ft 132 kts 226°
2026-05-04 17:38 55.61787 12.65584 30 ft 91 kts 221°
2026-05-04 17:38 55.61442 12.65048 30 ft 57 kts 221°
2026-05-04 17:38 55.61276 12.64688 31 ft 29 kts 244°
2026-05-04 17:39 55.61202 12.64173 30 ft 18 kts 299°
2026-05-04 17:39 55.61301 12.64143 30 ft 15 kts 23°
2026-05-04 17:39 55.61396 12.64244 30 ft 16 kts 33°
2026-05-04 17:40 55.61496 12.64359 30 ft 18 kts 33°
2026-05-04 17:40 55.61611 12.64489 30 ft 21 kts 33°
2026-05-04 17:40 55.61734 12.64632 30 ft 21 kts 32°
2026-05-04 17:40 55.61860 12.64777 30 ft 22 kts 33°
2026-05-04 17:41 55.61995 12.64930 30 ft 24 kts 33°
2026-05-04 17:41 55.62130 12.65088 30 ft 12 kts 34°
2026-05-04 17:41 55.62182 12.65079 30 ft 7 kts 324°
2026-05-04 17:41 55.62216 12.65000 30 ft 9 kts 304°
2026-05-04 17:42 55.62257 12.64892 30 ft 12 kts 303°
2026-05-04 17:42 55.62318 12.64797 30 ft 12 kts 344°
2026-05-04 17:42 55.62397 12.64785 30 ft 10 kts 359°
2026-05-04 17:42 55.62408 12.64788 30 ft 0 kts 17°
2026-05-04 17:43 55.62413 12.64797 30 ft 5 kts 40°
2026-05-04 17:43 55.62421 12.64865 30 ft 7 kts 89°
2026-05-04 17:43 55.62422 12.64889 30 ft 0 kts 89°
2026-05-04 17:43 55.62422 12.64902 30 ft 3 kts 89°
2026-05-04 17:44 55.62422 12.64913 30 ft 0 kts 89°
2026-05-04 17:44 55.62422 12.64912 30 ft 0 kts 89°
2026-05-04 17:54 55.62422 12.64911 30 ft 0 kts 89°